OPS 4682 DEB, 26731

Orbit data source: Space-Track

OPS 4682 DEB, 26731 is space debris in LEO originally from a launch on Sat, 03 Apr 1965 UTC launched from the Air Force Western Test Range (AFWTR). Debris objects in space refer to the collection of defunct objects orbiting the Earth. Examples of debris include non-operational satellites, rocket bodies, and fragments generated from explosions, collisions, or faulty payload assembly.

Loading next visibility...
Identifier
26731, 1965-027BE
Orbit
LEO
Country
Flag of USUS
Related business
Manufacturer
Unknown
Mission
Spacecraft
Bus & Motor
Unknown
Mass
Unknown
Launch date (UTC)
1965-04-03 (61 years ago)
Launch vehicle
Unknown
Launch site
Air Force Western Test Range (AFWTR)
Object type
Payload
Rocket body
Debris
Shape & HBR
Unknown shape, 0.1 m
Radar Cross Section
Medium (>0.1 m² and <1 m²)

Expand to show TLE details & history
Last TLE update: 1 week ago

TLE from 1 week ago
0 OPS 4682 DEB
1 26731U 65027BE  26249.34166992  .00000571  00000-0  19981-2 0  9995
2 26731  90.2642  16.3519 0022198  11.6441  15.9105 12.95360606572359
Epoch: 2026-09-06T08:12Z
TLE epoch observation values (Epoch: 2026-09-06T08:12:00.281Z)
Latitude
27.66101°
Longitude
-92.22523°
Altitude
1,267.358 km
Speed
7.232 km/s
True Right ascension
01h 04m 51s
True Declination
27° 31' 45"
Sunlit
Object was in full shadow at epoch
Visualization orbit readout
Latitude
Unknown
Longitude
Unknown
Altitude
Unknown
Speed
Unknown
Apparent Right ascension
Unknown
Apparent Declination
Unknown
Sunlit
N/A
Visualization observer readout
Local Sidereal Time
21:27:16
Azimuth
Unknown
Elevation
Unknown
Doppler factor
Unknown
Orbital elements
Apogee altitude
1,294.446 km
Perigee altitude
1,260.458 km
Semi-major axis
7,655.589 km
Eccentricity
0.00222
Inclination
90.2642°
RAAN
16.3519°
Arg. of periapsis
11.6441°
True anomaly
15.98042°
Mean anomaly
15.9105°
Eccentric anomaly
15.94544°
Mean motion
3.24023 °/min
Orbital period
111.1 mins
BSTAR
0.0019981
Loading maneuver chart data...
Computing Atmospheric mass density...
Loading historical data...
Loading historical data...
Loading historical data...
Loading historical data...
Loading historical data...
Loading historical data...
Loading historical data...

Documentation

Showing up to 5 results
|